| time (UTC) | temp F | wind direction | speed knots | gust knots | rain 1hr in | rain 24hr in | rain mn in | humidity % | barometer mb |
| 20260510032626 | 77 | 113 | 0.0 | 0.0 | 0.00 | 0.00 | 0.00 | 64 | 1008.1 |
| 20260510031625 | 78 | 114 | 0.0 | 0.0 | 0.00 | 0.00 | 0.00 | 62 | 1008.3 |
| 20260510030625 | 78 | 97 | 0.0 | 0.0 | 0.00 | 0.00 | 0.00 | 61 | 1008.1 |
| 20260510025627 | 78 | 116 | 0.0 | 0.0 | 0.00 | 0.00 | 0.00 | 60 | 1008.2 |
| 20260510025059 | 79 | 118 | 0.0 | 0.0 | 0.00 | 0.00 | 0.00 | 60 | 1008.1 |
| 20260510023622 | 79 | 106 | 0.0 | 0.0 | 0.00 | 0.00 | 0.00 | 58 | 1008.1 |
| 20260510023057 | 79 | 102 | 0.0 | 0.9 | 0.00 | 0.00 | 0.00 | 58 | 1008.1 |
| 20260510021617 | 80 | 96 | 0.0 | 0.0 | 0.00 | 0.00 | 0.00 | 58 | 1007.9 |
| 20260510020617 | 80 | 96 | 0.0 | 0.0 | 0.00 | 0.00 | 0.00 | 57 | 1007.7 |
| 20260510015614 | 81 | 111 | 0.0 | 0.9 | 0.00 | 0.00 | 0.00 | 56 | 1007.7 |
| 20260510014613 | 82 | 99 | 0.0 | 1.7 | 0.00 | 0.00 | 0.00 | 55 | 1007.5 |
| 20260510014527 | 82 | 179 | 0.0 | 1.7 | 0.00 | 0.00 | 0.00 | 55 | 1007.6 |
| 20260510012612 | 83 | 114 | 0.0 | 1.7 | 0.00 | 0.00 | 0.00 | 55 | 1007.4 |
| 20260510011608 | 83 | 90 | 0.9 | 2.6 | 0.00 | 0.00 | 0.00 | 56 | 1007.2 |
| 20260510010609 | 84 | 87 | 0.9 | 1.7 | 0.00 | 0.00 | 0.00 | 56 | 1007.0 |
| 20260510005607 | 85 | 92 | 0.9 | 4.3 | 0.00 | 0.00 | 0.00 | 55 | 1006.9 |
| 20260510004604 | 86 | 117 | 1.7 | 4.3 | 0.00 | 0.00 | 0.00 | 54 | 1006.9 |
| 20260510003606 | 88 | 97 | 0.9 | 2.6 | 0.00 | 0.00 | 0.00 | 54 | 1006.9 |
| 20260510002602 | 88 | 94 | 0.9 | 4.3 | 0.00 | 0.00 | 0.00 | 54 | 1006.9 |
| 20260510001602 | 89 | 82 | 0.9 | 2.6 | 0.00 | 0.00 | 0.00 | 53 | 1006.9 |
| 20260510000601 | 89 | 162 | 1.7 | 2.6 | 0.00 | 0.00 | 0.00 | 52 | 1006.9 |
| 20260509235602 | 91 | 94 | 1.7 | 2.6 | 0.00 | 0.00 | 0.00 | 48 | 1007.0 |
| 20260509234601 | 91 | 272 | 0.9 | 2.6 | 0.00 | 0.00 | 0.00 | 45 | 1007.0 |
| 20260509233602 | 93 | 296 | 0.0 | 0.9 | 0.00 | 0.00 | 0.00 | 40 | 1007.0 |
| 20260509232601 | 91 | 296 | 0.9 | 2.6 | 0.00 | 0.00 | 0.00 | 43 | 1007.2 |
| 20260509231601 | 91 | 257 | 0.9 | 4.3 | 0.00 | 0.00 | 0.00 | 44 | 1007.1 |
| 20260509231042 | 93 | 276 | 0.0 | 1.7 | 0.00 | 0.00 | 0.00 | 43 | 1007.0 |
| 20260509225601 | 93 | 289 | 0.0 | 2.6 | 0.00 | 0.00 | 0.00 | 39 | 1007.0 |
| 20260509224602 | 93 | 214 | 0.0 | 2.6 | 0.00 | 0.00 | 0.00 | 44 | 1007.0 |
| 20260509223602 | 92 | 203 | 1.7 | 3.5 | 0.00 | 0.00 | 0.00 | 44 | 1007.1 |
| 20260509222602 | 89 | 179 | 0.9 | 3.5 | 0.00 | 0.00 | 0.00 | 46 | 1007.0 |
| 20260509221600 | 89 | 13 | 2.6 | 4.3 | 0.00 | 0.00 | 0.00 | 46 | 1007.1 |
| 20260509221528 | 90 | 158 | 0.0 | 5.2 | 0.00 | 0.00 | 0.00 | 45 | 1007.2 |
| 20260509215601 | 89 | 82 | 2.6 | 5.2 | 0.00 | 0.00 | 0.00 | 45 | 1007.1 |
| 20260509214601 | 90 | 38 | 2.6 | 4.3 | 0.00 | 0.00 | 0.00 | 44 | 1007.2 |
| 20260509213602 | 89 | 93 | 2.6 | 6.1 | 0.00 | 0.00 | 0.00 | 48 | 1007.3 |
| 20260509213041 | 88 | 45 | 1.7 | 6.1 | 0.00 | 0.00 | 0.00 | 51 | 1007.4 |
| 20260509211602 | 89 | 63 | 4.3 | 9.6 | 0.00 | 0.00 | 0.00 | 47 | 1007.6 |
| 20260509210602 | 88 | 69 | 1.7 | 3.5 | 0.00 | 0.00 | 0.00 | 50 | 1007.7 |
| 20260509210035 | 89 | 358 | 1.7 | 5.2 | 0.00 | 0.00 | 0.00 | 51 | 1007.9 |
| 20260509204601 | 90 | 92 | 0.9 | 2.6 | 0.00 | 0.00 | 0.00 | 50 | 1007.9 |
| 20260509203602 | 88 | 4 | 0.9 | 5.2 | 0.00 | 0.00 | 0.00 | 53 | 1008.0 |
| 20260509202602 | 87 | 18 | 2.6 | 5.2 | 0.00 | 0.00 | 0.00 | 57 | 1008.3 |
| 20260509201602 | 88 | 58 | 1.7 | 6.1 | 0.00 | 0.00 | 0.00 | 50 | 1008.3 |
| 20260509200601 | 87 | 80 | 0.9 | 4.3 | 0.00 | 0.00 | 0.00 | 55 | 1008.3 |
| 20260509195601 | 87 | 16 | 0.9 | 6.1 | 0.00 | 0.00 | 0.00 | 57 | 1008.6 |
| 20260509194601 | 88 | 44 | 1.7 | 5.2 | 0.00 | 0.00 | 0.00 | 56 | 1008.6 |
| 20260509193601 | 86 | 51 | 2.6 | 5.2 | 0.00 | 0.00 | 0.00 | 53 | 1008.8 |
| 20260509192602 | 85 | 285 | 0.9 | 3.5 | 0.00 | 0.00 | 0.00 | 58 | 1008.8 |
| 20260509191601 | 84 | 49 | 1.7 | 7.8 | 0.00 | 0.00 | 0.00 | 60 | 1009.0 |
| 20260509191518 | 85 | 21 | 1.7 | 7.8 | 0.00 | 0.00 | 0.00 | 63 | 1008.9 |
| 20260509185601 | 85 | 51 | 1.7 | 6.1 | 0.00 | 0.00 | 0.00 | 63 | 1009.0 |
| 20260509185034 | 84 | 59 | 3.5 | 6.1 | 0.00 | 0.00 | 0.00 | 62 | 1009.1 |
| 20260509183601 | 84 | 58 | 3.5 | 5.2 | 0.00 | 0.00 | 0.00 | 64 | 1009.2 |
| 20260509182601 | 83 | 130 | 1.7 | 7.8 | 0.00 | 0.00 | 0.00 | 66 | 1009.2 |
| 20260509181602 | 84 | 16 | 3.5 | 8.7 | 0.00 | 0.00 | 0.00 | 63 | 1009.3 |
| 20260509180601 | 84 | 48 | 1.7 | 7.8 | 0.00 | 0.00 | 0.00 | 64 | 1009.4 |
| 20260509175600 | 83 | 41 | 3.5 | 9.6 | 0.00 | 0.00 | 0.00 | 62 | 1009.4 |
| 20260509174601 | 82 | 35 | 5.2 | 10.4 | 0.00 | 0.00 | 0.00 | 65 | 1009.4 |
| 20260509173601 | 83 | 290 | 3.5 | 7.8 | 0.00 | 0.00 | 0.00 | 61 | 1009.5 |
| 20260509172601 | 82 | 30 | 2.6 | 9.6 | 0.00 | 0.00 | 0.00 | 62 | 1009.8 |
| 20260509171601 | 82 | 54 | 1.7 | 3.5 | 0.00 | 0.00 | 0.00 | 63 | 1009.9 |
| 20260509171055 | 81 | 303 | 1.7 | 12.2 | 0.00 | 0.00 | 0.00 | 63 | 1010.0 |
| 20260509165602 | 81 | 37 | 2.6 | 8.7 | 0.00 | 0.00 | 0.00 | 62 | 1010.0 |
| 20260509165034 | 80 | 42 | 5.2 | 12.2 | 0.00 | 0.00 | 0.00 | 63 | 1010.0 |
| 20260509163601 | 80 | 38 | 5.2 | 8.7 | 0.00 | 0.00 | 0.00 | 64 | 1010.1 |
| 20260509162601 | 80 | 37 | 5.2 | 9.6 | 0.00 | 0.00 | 0.00 | 65 | 1010.1 |
| 20260509161601 | 80 | 37 | 3.5 | 6.1 | 0.00 | 0.00 | 0.00 | 65 | 1010.1 |
| 20260509160601 | 80 | 63 | 3.5 | 6.1 | 0.00 | 0.00 | 0.00 | 65 | 1010.0 |
| 20260509155602 | 79 | 8 | 2.6 | 5.2 | 0.00 | 0.00 | 0.00 | 62 | 1010.0 |
| 20260509154601 | 79 | 30 | 3.5 | 8.7 | 0.00 | 0.00 | 0.00 | 65 | 1009.9 |
| 20260509153602 | 79 | 24 | 3.5 | 7.8 | 0.00 | 0.00 | 0.00 | 63 | 1009.9 |
| 20260509153040 | 79 | 250 | 1.7 | 7.8 | 0.00 | 0.00 | 0.00 | 63 | 1010.0 |
| 20260509152049 | 78 | 51 | 5.2 | 9.6 | 0.00 | 0.00 | 0.00 | 65 | 1010.0 |
| 20260509150601 | 78 | 41 | 3.5 | 8.7 | 0.00 | 0.00 | 0.00 | 73 | 1010.0 |
| 20260509150041 | 76 | 347 | 2.6 | 8.7 | 0.00 | 0.00 | 0.00 | 75 | 1010.0 |
| 20260509144601 | 76 | 34 | 2.6 | 7.8 | 0.00 | 0.00 | 0.00 | 77 | 1010.0 |
| 20260509143602 | 75 | 38 | 4.3 | 6.1 | 0.00 | 0.00 | 0.00 | 78 | 1010.0 |
| 20260509142557 | 74 | 4 | 1.7 | 6.1 | 0.00 | 0.00 | 0.00 | 80 | 1009.9 |
| 20260509141552 | 74 | 296 | 1.7 | 6.1 | 0.00 | 0.00 | 0.00 | 80 | 1009.9 |
| 20260509140547 | 73 | 52 | 2.6 | 6.1 | 0.00 | 0.00 | 0.00 | 80 | 1010.0 |
| 20260509135542 | 73 | 300 | 1.7 | 5.2 | 0.00 | 0.00 | 0.00 | 81 | 1010.0 |
| 20260509134537 | 73 | 326 | 1.7 | 6.1 | 0.00 | 0.00 | 0.00 | 82 | 1009.9 |
| 20260509133531 | 72 | 39 | 2.6 | 7.8 | 0.00 | 0.00 | 0.00 | 83 | 1009.8 |
| 20260509132533 | 71 | 54 | 2.6 | 6.1 | 0.00 | 0.00 | 0.00 | 84 | 1009.6 |
| 20260509131530 | 71 | 38 | 6.1 | 7.8 | 0.00 | 0.00 | 0.00 | 85 | 1009.6 |
| 20260509130527 | 70 | 49 | 3.5 | 7.8 | 0.00 | 0.00 | 0.00 | 86 | 1009.8 |
| 20260509125523 | 69 | 41 | 3.5 | 7.8 | 0.00 | 0.00 | 0.00 | 88 | 1009.6 |
| 20260509124523 | 68 | 16 | 2.6 | 5.2 | 0.00 | 0.01 | 0.00 | 89 | 1009.6 |
| 20260509123522 | 68 | 28 | 4.3 | 7.8 | 0.00 | 0.02 | 0.00 | 89 | 1009.6 |
| 20260509122522 | 68 | 49 | 1.7 | 5.2 | 0.00 | 0.04 | 0.00 | 90 | 1009.8 |
| 20260509121522 | 67 | 23 | 2.6 | 4.3 | 0.00 | 0.05 | 0.00 | 90 | 1009.6 |
| 20260509120522 | 67 | 265 | 0.9 | 3.5 | 0.00 | 0.15 | 0.00 | 90 | 1009.6 |
| 20260509115958 | 67 | 49 | 2.6 | 4.3 | 0.00 | 0.15 | 0.00 | 90 | 1009.4 |
| 20260509114522 | 67 | 285 | 2.6 | 4.3 | 0.00 | 0.15 | 0.00 | 89 | 1009.4 |
| 20260509114005 | 67 | 37 | 0.9 | 5.2 | 0.00 | 0.15 | 0.00 | 88 | 1009.2 |
| 20260509112523 | 67 | 75 | 1.7 | 5.2 | 0.00 | 0.15 | 0.00 | 87 | 1008.7 |
| 20260509111523 | 68 | 281 | 2.6 | 4.3 | 0.00 | 0.15 | 0.00 | 86 | 1008.7 |
| 20260509110523 | 68 | 337 | 1.7 | 4.3 | 0.00 | 0.15 | 0.00 | 86 | 1008.4 |
| 20260509105522 | 68 | 271 | 3.5 | 4.3 | 0.00 | 0.15 | 0.00 | 86 | 1008.2 |
| 20260509104522 | 68 | 286 | 1.7 | 2.6 | 0.00 | 0.15 | 0.00 | 87 | 1007.9 |
| 20260509103523 | 68 | 278 | 0.0 | 0.0 | 0.00 | 0.16 | 0.00 | 87 | 1007.9 |
| 20260509102522 | 68 | 276 | 0.0 | 1.7 | 0.00 | 0.29 | 0.00 | 87 | 1007.8 |
| 20260509102000 | 68 | 276 | 0.0 | 1.7 | 0.00 | 0.35 | 0.00 | 87 | 1007.7 |
| 20260509100523 | 68 | 279 | 0.0 | 1.7 | 0.00 | 0.35 | 0.00 | 86 | 1007.7 |
| 20260509095522 | 69 | 281 | 0.0 | 0.9 | 0.00 | 0.36 | 0.00 | 86 | 1007.7 |
| 20260509095002 | 69 | 333 | 0.0 | 0.0 | 0.00 | 0.37 | 0.00 | 85 | 1007.4 |
| 20260509093525 | 69 | 37 | 0.0 | 0.0 | 0.00 | 0.37 | 0.00 | 84 | 1007.2 |
| 20260509092524 | 70 | 345 | 0.0 | 0.0 | 0.00 | 0.37 | 0.00 | 82 | 1007.3 |
| 20260509091524 | 71 | 231 | 0.0 | 0.9 | 0.00 | 0.37 | 0.00 | 81 | 1006.9 |
| 20260509090524 | 70 | 320 | 0.0 | 3.5 | 0.00 | 0.37 | 0.00 | 83 | 1007.0 |
| 20260509085524 | 71 | 279 | 0.0 | 2.6 | 0.00 | 0.37 | 0.00 | 85 | 1007.4 |
| 20260509085009 | 71 | 299 | 0.9 | 3.5 | 0.00 | 0.37 | 0.00 | 85 | 1007.1 |
| 20260509083524 | 70 | 51 | 0.0 | 3.5 | 0.00 | 0.38 | 0.00 | 85 | 1005.6 |
| 20260509083008 | 70 | 221 | 1.7 | 5.2 | 0.00 | 0.38 | 0.00 | 85 | 1005.1 |
| 20260509081523 | 70 | 175 | 0.9 | 6.1 | 0.00 | 0.40 | 0.00 | 86 | 1005.5 |
| 20260509080524 | 71 | 214 | 0.9 | 3.5 | 0.00 | 0.40 | 0.00 | 86 | 1006.2 |
| 20260509075524 | 71 | 138 | 1.7 | 5.2 | 0.00 | 0.41 | 0.00 | 86 | 1006.9 |
| 20260509074955 | 70 | 212 | 2.6 | 5.2 | 0.00 | 0.42 | 0.00 | 86 | 1007.6 |
| 20260509073524 | 70 | 171 | 0.9 | 6.1 | 0.00 | 0.42 | 0.00 | 87 | 1008.3 |
| 20260509072524 | 70 | 230 | 1.7 | 5.2 | 0.00 | 0.43 | 0.00 | 87 | 1008.3 |
| 20260509071524 | 70 | 227 | 1.7 | 5.2 | 0.00 | 0.45 | 0.00 | 87 | 1008.7 |
| 20260509070523 | 69 | 233 | 1.7 | 5.2 | 0.00 | 0.45 | 0.00 | 88 | 1009.1 |
| 20260509065525 | 69 | 317 | 0.0 | 5.2 | 0.00 | 0.45 | 0.00 | 88 | 1009.3 |
| 20260509065031 | 69 | 219 | 0.9 | 5.2 | 0.00 | 0.45 | 0.00 | 88 | 1009.5 |
| 20260509063523 | 69 | 296 | 3.5 | 5.2 | 0.00 | 0.45 | 0.00 | 88 | 1009.9 |
| 20260509062524 | 69 | 292 | 3.5 | 4.3 | 0.00 | 0.45 | 0.00 | 89 | 1009.9 |
| 20260509061524 | 69 | 274 | 0.9 | 3.5 | 0.00 | 0.45 | 0.00 | 88 | 1009.8 |
| 20260509061441 | 69 | 180 | 0.9 | 1.7 | 0.00 | 0.45 | 0.00 | 87 | 1009.5 |
| 20260509055523 | 69 | 230 | 0.0 | 0.0 | 0.00 | 0.45 | 0.00 | 86 | 1009.8 |
| 20260509054523 | 69 | 154 | 0.0 | 0.0 | 0.00 | 0.45 | 0.00 | 85 | 1009.5 |
| 20260509053959 | 69 | 114 | 0.0 | 0.0 | 0.00 | 0.45 | 0.00 | 85 | 1010.1 |
| 20260509052524 | 70 | 113 | 0.0 | 0.9 | 0.00 | 0.45 | 0.00 | 83 | 1010.4 |
| 20260509051523 | 70 | 37 | 0.0 | 1.7 | 0.00 | 0.45 | 0.00 | 83 | 1010.6 |
| 20260509050523 | 70 | 8 | 1.7 | 4.3 | 0.00 | 0.45 | 0.00 | 84 | 1010.8 |
| 20260509045959 | 70 | 38 | 2.6 | 3.5 | 0.00 | 0.45 | 0.45 | 85 | 1010.8 |
| 20260509044523 | 70 | 103 | 0.0 | 0.0 | 0.00 | 0.45 | 0.45 | 83 | 1009.5 |
| 20260509043523 | 71 | 103 | 0.0 | 0.0 | 0.00 | 0.45 | 0.45 | 82 | 1009.5 |
| 20260509042523 | 71 | 103 | 0.0 | 0.0 | 0.00 | 0.45 | 0.45 | 81 | 1009.6 |
| 20260509041523 | 71 | 103 | 0.0 | 0.0 | 0.00 | 0.45 | 0.45 | 81 | 1009.3 |
| 20260509040524 | 71 | 104 | 0.0 | 3.5 | 0.00 | 0.45 | 0.45 | 80 | 1009.0 |
| 20260509035524 | 72 | 214 | 0.0 | 0.9 | 0.00 | 0.45 | 0.45 | 80 | 1008.9 |
| 20260509034523 | 72 | 243 | 0.0 | 0.9 | 0.00 | 0.45 | 0.45 | 79 | 1008.6 |
| 20260509033523 | 73 | 157 | 0.0 | 2.6 | 0.00 | 0.45 | 0.45 | 79 | 1009.0 |